Location: Home
(42.5358°N, 72.7383°W)
Time: 00:48:18
(UTC-05:00)

Vanguard 1 Rocket - Pass Details

Date: 08 December 2021
Orbit: 651 x 4224 km, 34.3° (Epoch: 23 January)

Event Time Altitude Azimuth Distance (km) Brightness Sun altitude
Exits shadow 05:48:06 14° 268° (W) 4,665 10.4 -14.3°
Maximum altitude 06:01:39 52° 200° (SSW) 3,900 10.5 -11.9°
Drops below altitude 10° 06:25:08 10° 133° (SE) 7,412 13.4 -7.9°
Sets 06:31:20 0° 129° (SE) 8,443 14.2 -6.8°
